SCP
0 1 1 1 1 1 1 1 1 1 0 0 0 1 0 0 0 0 0 0 0 0 0 0 0 0 0 0 0 0 0 0 0 0 0 0 0 0 0 0 0 0 1
0 1 1 2 2 1 1 1 1 1 1 0 0 0 0 0 0 0 0 0 0 0 0 0 0 0 0 0 0 0 0 0 0 0 0 0 0 0 0 1 1 1 1
0 1 1 2 2 2 1 1 1 1 1 0 0 0 0 0 0 0 0 0 0 0 0 0 0 0 0 0 0 0 0 0 0 0 0 0 0 0 1 1 1 1 1
1 1 1 2 2 2 2 1 1 1 1 0 0 0 0 0 0 0 0 0 0 0 0 0 0 0 0 0 0 0 0 0 0 0 0 0 0 1 1 1 1 1 0
1 1 1 2 2 2 2 1 1 1 1 0 0 0 0 0 0 0 0 0 0 0 0 0 0 0 0 0 0 0 0 0 0 0 0 0 0 1 1 1 1 1 0
1 1 1 2 2 2 2 2 1 1 1 0 0 0 0 0 0 0 0 0 0 0 0 0 0 0 0 0 0 0 0 0 0 0 0 0 1 1 1 1 1 1 0
1 1 2 2 2 2 2 2 1 1 1 0 0 0 0 0 0 0 1 1 1 0 0 0 0 0 0 0 0 0 0 0 0 0 0 0 1 1 1 1 1 0 0
1 1 2 2 2 2 2 2 1 1 1 1 1 1 1 0 0 0 1 1 1 1 1 0 0 1 0 0 1 0 0 0 0 0 0 0 0 1 1 1 1 0 0
1 1 2 2 2 2 2 2 1 1 1 1 1 1 1 0 0 0 0 1 1 1 1 1 1 1 1 1 1 1 0 0 0 0 0 0 0 0 1 0 0 0 0
1 1 1 2 2 2 2 2 1 1 1 1 1 1 1 0 0 0 0 0 1 1 1 1 1 1 1 1 1 1 0 0 0 0 0 0 0 0 0 0 0 0 0
1 1 1 1 1 2 2 2 1 1 1 1 1 1 1 0 0 0 0 0 1 1 1 1 1 1 0 0 0 0 0 0 0 0 0 0 0 0 0 0 0 0 0
1 1 1 1 1 1 2 2 1 1 1 1 1 1 1 0 0 0 0 1 1 0 0 0 0 0 0 0 0 0 0 0 0 0 0 0 0 0 0 1 1 0 0
1 1 1 1 1 1 1 1 1 1 1 1 1 1 0 0 0 0 0 0 0 0 0 0 0 0 0 0 0 0 0 0 0 0 0 0 0 0 1 1 1 1 1
1 1 1 1 1 1 1 1 1 1 1 1 1 0 0 0 0 0 0 0 0 0 0 0 0 0 0 0 0 0 0 0 0 0 0 0 1 1 1 1 1 1 1
1 1 1 1 1 1 1 1 1 1 1 1 0 0 0 0 0 0 0 0 0 0 0 0 0 0 0 0 0 0 0 0 0 0 0 1 1 1 1 1 1 1 1
1 1 1 1 1 1 1 1 1 1 1 0 0 0 0 0 0 0 0 0 0 0 0 0 0 0 0 0 0 0 0 0 0 0 0 0 1 1 1 1 1 1 1
1 1 1 1 1 1 1 1 1 1 1 0 0 0 0 0 0 0 0 0 0 0 0 0 0 0 0 0 0 0 0 0 0 0 0 0 0 0 0 0 1 1 1
1 1 1 1 1 1 1 1 1 1 1 0 0 0 0 0 0 0 0 0 0 0 0 0 0 0 0 0 0 0 0 0 0 0 0 0 0 0 0 0 0 1 1
1 1 1 1 1 1 1 1 1 1 0 0 0 0 0 0 0 0 0 0 0 0 0 0 0 0 0 0 0 0 0 0 0 0 0 0 0 0 0 0 0 0 0
1 1 1 1 1 1 1 1 1 0 0 0 0 0 0 0 0 0 0 0 0 0 0 0 0 0 0 0 0 0 0 0 0 0 0 0 0 0 0 0 0 0 0
1 1 1 1 1 1 1 1 1 0 0 0 0 0 0 0 0 0 0 0 0 0 0 0 0 0 0 0 0 0 0 0 0 0 0 0 0 0 0 0 0 0 0
1 1 1 1 1 1 1 1 0 0 0 0 0 0 0 0 0 0 0 0 0 0 0 0 0 0 0 0 0 0 0 0 0 0 0 0 0 0 0 0 0 0 0
0 0 1 1 1 1 1 0 0 0 0 0 0 0 0 0 0 0 0 0 0 0 0 0 0 0 0 0 0 0 0 0 0 0 0 0 0 0 0 0 0 0 0
0 0 0 0 0 0 0 0 0 0 0 0 0 0 -0 -0 0 0 0 0 0 0 0 0 0 0 0 0 0 0 0 0 0 0 0 0 0 0 0 0 0 0 0
0 0 0 0 0 0 0 0 0 0 0 0 0 -0 -0 -0 0 0 0 0 0 0 0 0 0 0 0 0 0 0 0 0 0 0 0 0 0 0 0 0 0 0 0
0 0 0 0 0 0 0 0 0 0 0 0 0 -0 -0 -0 -0 0 0 0 0 0 0 0 0 0 0 0 0 0 0 0 0 0 0 0 0 0 0 0 0 0 0
Wind_Speed
10 12 19 20 20 19 19 19 18 18 18 18 18 18 17 17 17 16 15 15 14 14 14 13 13 13 13 14 14 14 14 15 15 15 15 15 15 15 16 16 15 12 17
14 15 20 20 20 20 19 19 18 18 17 17 17 17 16 16 16 15 15 14 14 14 13 13 13 13 13 13 13 13 14 14 14 15 15 14 14 14 15 15 14 10 16
17 15 18 20 20 20 19 19 18 18 17 17 16 16 16 16 15 15 14 14 14 14 13 13 13 13 13 13 12 12 12 13 13 14 13 7 9 14 14 15 15 15 15
17 13 15 21 21 20 19 18 18 17 17 16 16 16 16 15 15 15 14 14 14 13 13 13 12 12 12 12 11 11 10 10 11 12 6 5 7 13 14 14 14 14 14
14 12 16 22 21 21 19 18 18 17 17 16 16 15 15 15 15 14 14 14 14 13 12 12 11 11 11 10 10 9 9 8 9 9 5 5 5 12 14 14 14 14 14
12 11 16 22 21 20 20 19 18 17 17 16 16 15 15 15 14 14 14 13 13 13 12 11 11 10 9 9 8 8 7 8 9 6 5 5 5 11 13 13 13 13 13
13 10 14 21 21 20 20 19 18 17 17 16 15 15 15 14 14 14 14 13 12 12 11 10 9 8 8 8 7 7 7 8 7 6 5 4 6 11 13 13 13 13 12
15 12 13 20 21 20 20 19 18 17 17 16 15 15 14 14 13 13 13 13 12 11 10 9 8 7 7 6 6 7 6 7 8 7 5 4 9 11 13 12 12 12 12
13 12 10 12 15 19 19 19 18 17 17 16 15 15 14 14 13 13 12 12 11 10 9 8 6 6 5 4 5 5 6 8 5 4 7 4 9 12 13 12 12 12 11
11 10 9 9 9 10 12 18 18 17 17 16 15 15 14 13 13 12 11 11 11 9 8 7 5 4 3 3 3 4 7 7 4 4 4 6 11 12 13 12 12 11 11
13 10 9 9 8 8 8 14 15 16 16 14 12 15 12 5 6 7 9 10 10 9 7 5 4 2 1 2 3 4 5 3 4 3 3 8 12 13 12 12 12 11 11
15 12 9 10 10 9 9 7 5 7 7 6 5 6 4 4 4 6 8 10 9 8 6 4 2 0 1 1 2 2 2 4 3 3 4 10 12 12 12 12 12 11 11
16 15 12 10 10 9 6 6 3 3 4 5 5 5 4 3 3 3 3 4 4 4 2 2 1 1 1 1 1 1 2 3 3 3 4 10 11 12 12 12 12 12 11
15 15 13 11 10 8 7 6 5 4 4 4 5 6 5 3 3 3 2 3 2 2 2 1 1 1 1 1 1 2 2 2 2 2 4 11 11 12 12 12 12 12 11
15 14 13 11 9 9 8 6 6 5 5 5 5 5 6 5 4 3 2 2 2 2 2 2 1 1 1 1 1 2 3 3 3 4 3 10 11 11 12 12 12 12 12
15 15 13 11 10 9 7 6 6 5 5 4 4 5 6 5 5 4 3 2 2 2 2 2 1 1 1 1 1 1 2 3 3 4 3 6 11 11 11 12 12 12 12
14 13 13 12 10 9 8 7 6 5 5 5 4 5 6 6 5 4 3 3 2 2 2 2 2 1 1 1 1 1 0 2 3 4 4 3 4 9 11 11 11 11 12
13 13 12 12 11 9 7 6 5 5 5 4 4 5 6 6 6 5 4 3 3 2 2 2 2 1 1 1 0 1 0 0 2 3 3 3 3 3 6 10 10 9 11
12 13 12 11 11 9 8 6 5 5 5 4 4 4 5 6 6 5 4 3 3 3 2 2 2 1 1 0 1 0 0 0 1 2 3 3 3 3 3 5 8 8 9
11 11 11 11 10 9 7 5 4 4 3 3 4 5 6 5 6 5 3 3 4 3 2 2 2 1 1 0 1 1 1 1 0 1 2 2 2 3 3 3 3 4 8
10 10 10 11 10 8 6 6 5 4 4 3 3 5 6 5 5 5 4 4 4 3 3 3 2 2 1 1 2 3 3 2 1 0 1 1 1 2 2 2 2 1 2
11 11 10 10 10 8 6 5 5 5 3 3 3 4 5 5 5 5 5 4 4 3 3 2 2 2 1 2 2 2 3 4 3 2 1 1 1 1 2 2 2 2 1
11 11 11 10 9 8 7 5 5 4 3 2 3 2 4 5 5 5 6 5 4 4 3 3 3 3 1 1 1 3 3 2 2 3 2 1 0 1 0 1 1 1 2
10 10 9 10 10 8 8 8 9 7 5 4 4 3 3 5 5 5 6 5 5 4 4 3 3 2 3 1 1 1 2 3 3 1 3 3 2 0 0 0 1 1 1
10 10 9 9 8 8 8 9 8 6 4 4 4 5 4 3 4 5 5 5 5 4 4 4 3 3 2 2 1 1 2 2 2 3 0 3 3 2 1 1 1 1 1
8 9 9 9 8 8 8 8 8 8 7 7 6 5 4 2 3 4 5 5 5 4 4 4 4 4 3 3 2 2 2 2 1 2 2 1 2 3 2 1 1 1 1
Wind_Direction
151 153 146 139 133 128 124 120 117 114 111 109 108 107 107 106 107 107 107 107 106 106 104 102 101 100 101 103 103 105 107 107 109 109 108 108 110 111 109 108 105 104 107
149 152 147 141 137 133 129 125 122 120 117 115 113 112 112 111 110 110 110 109 107 106 104 103 102 102 102 103 104 105 107 109 109 107 105 106 110 113 110 109 109 112 110
144 149 147 143 139 136 134 131 127 125 122 120 118 117 116 115 114 113 113 111 110 108 106 104 104 103 102 101 102 104 106 109 108 106 101 95 104 109 111 111 112 111 111
143 146 147 144 142 139 137 135 131 129 127 125 123 121 120 119 117 116 114 113 112 111 108 106 105 102 101 100 100 102 105 110 113 113 100 98 106 111 112 113 114 113 113
141 145 150 146 144 142 140 138 136 134 132 130 128 127 124 122 120 118 117 117 115 113 110 108 105 102 100 98 96 96 100 110 117 112 101 95 101 117 117 117 117 115 114
141 145 150 146 145 144 142 140 139 137 136 135 133 130 128 126 125 122 121 120 119 116 114 111 107 102 98 94 92 91 97 118 114 111 112 112 114 123 122 121 119 117 117
143 145 149 147 146 145 143 142 141 141 140 138 137 134 132 131 129 126 125 124 123 120 118 115 110 102 93 86 81 79 90 122 118 119 121 121 125 127 126 125 124 122 122
145 144 147 149 148 147 146 146 145 145 144 142 141 138 137 135 133 131 130 129 128 126 123 120 114 103 90 76 70 69 83 115 126 131 128 130 135 133 131 130 128 128 128
142 143 145 150 150 150 149 149 149 148 147 146 145 143 142 141 140 139 137 135 134 134 132 129 122 109 95 79 67 68 90 115 123 135 144 141 144 142 139 138 136 135 135
140 143 144 146 145 147 150 152 152 151 151 150 149 149 148 147 145 144 143 143 142 142 141 138 131 116 93 62 47 61 85 106 116 130 135 154 153 150 147 146 145 143 141
148 151 149 149 146 145 149 157 154 154 155 154 154 155 149 140 141 147 153 153 151 150 148 148 147 137 82 39 27 58 89 112 124 138 154 165 162 158 155 154 152 151 150
158 158 159 156 153 153 157 150 151 151 151 149 150 149 140 142 157 158 162 159 157 153 154 160 167 179 43 29 20 49 94 129 132 154 173 171 169 167 165 163 162 160 159
161 162 164 164 163 162 150 151 151 146 147 148 153 150 149 148 154 146 146 150 146 146 131 133 102 35 45 62 44 85 128 137 155 168 176 178 178 176 174 174 172 170 168
162 164 164 166 165 161 152 157 157 156 159 161 165 157 148 147 147 147 146 139 135 128 127 111 102 53 34 71 98 109 134 152 156 157 187 188 185 181 181 182 182 181 178
163 162 165 165 166 159 154 163 162 165 168 166 164 161 153 151 152 150 148 144 144 139 136 131 118 99 66 62 98 111 126 148 163 162 192 195 192 190 188 190 192 192 189
163 164 166 165 164 161 159 161 160 164 161 157 158 162 154 150 150 147 145 142 140 146 146 141 137 131 107 66 51 95 137 154 170 176 186 199 198 197 197 198 201 201 199
166 164 164 162 163 161 160 160 156 157 156 156 155 155 152 148 148 144 145 146 150 143 131 108 92 81 78 59 12 337 157 173 176 178 181 192 206 209 207 207 208 208 208
163 165 166 166 161 159 154 150 150 150 151 152 149 151 153 149 147 142 146 152 150 134 123 118 100 88 64 60 342 314 310 206 189 188 185 194 201 211 217 217 214 214 216
164 163 164 160 160 155 147 142 142 141 145 147 144 146 147 145 144 144 149 154 142 124 122 136 95 108 100 52 291 313 330 260 218 195 190 195 200 204 209 225 224 223 224
159 158 161 157 157 149 139 127 125 127 138 142 147 149 144 145 146 141 144 146 135 121 120 112 97 78 110 126 359 17 340 317 259 185 189 168 172 191 196 203 218 235 231
159 155 158 158 154 148 146 146 146 149 150 149 156 151 145 147 147 143 141 135 133 132 142 133 108 71 35 52 60 15 354 0 9 236 146 128 126 140 157 176 181 202 248
157 156 156 162 158 157 155 150 148 144 148 148 147 144 148 148 148 147 139 135 134 125 114 104 98 90 23 60 106 83 20 355 347 360 12 140 135 115 138 162 172 187 209
153 160 162 163 161 159 151 135 129 114 106 114 133 144 156 151 145 142 141 134 129 126 131 127 117 117 96 19 94 133 133 206 308 335 347 5 29 89 138 157 160 178 182
157 159 159 160 157 156 152 150 154 154 157 167 161 152 152 144 138 139 138 132 131 128 135 139 123 126 123 91 25 59 138 155 140 345 334 340 347 14 289 152 156 169 160
161 158 159 158 157 158 157 159 159 156 154 145 141 143 144 139 139 140 139 133 134 134 138 133 124 125 126 134 122 87 68 64 91 128 286 323 337 323 301 259 223 209 177
159 158 161 161 163 164 162 162 160 158 153 150 155 158 156 144 138 144 139 138 143 143 148 148 141 136 131 122 116 113 125 122 133 130 153 267 303 305 314 305 269 233 199